When you browse on this site, cookies collect data to enhance your experience and personalize the content and advertising you see.
Visit our Privacy Policy to learn more. By continuing to use the site, you agree to this use of cookies and data.

Hourly Weather Aguililla

Today, 14 July, Tuesday

Time Temperature Precipitation Wind Pressure Humidity
00:00 +21°C° 0.3 mm 1 mps 676 mmHg 95%
01:00 +21°C° 0.3 mm 1 mps 676 mmHg 95%
02:00 +18°C° 0.3 mm 0 mps 676 mmHg 95%
03:00 +18°C° 0.3 mm 0 mps 676 mmHg 95%
04:00 +18°C° 0.3 mm 0 mps 676 mmHg 94%
05:00 +18°C° 0.3 mm 0 mps 676 mmHg 94%
06:00 +20°C° 0 mm 0 mps 676 mmHg 91%
07:00 +21°C° 0 mm 0 mps 677 mmHg 88%
08:00 +23°C° 0 mm 0 mps 677 mmHg 84%
09:00 +25°C° 0.1 mm 0 mps 678 mmHg 77%
10:00 +29°C° 0.1 mm 1 mps 678 mmHg 71%
11:00 +31°C° 0.1 mm 1 mps 678 mmHg 64%
12:00 +31°C° 0.7 mm 1 mps 678 mmHg 65%
13:00 +31°C° 0.7 mm 1 mps 677 mmHg 66%
14:00 +31°C° 0.7 mm 1 mps 677 mmHg 68%
15:00 +28°C° 0.2 mm 0 mps 676 mmHg 70%
16:00 +28°C° 0.2 mm 0 mps 676 mmHg 72%
17:00 +27°C° 0.2 mm 0 mps 675 mmHg 74%
18:00 +27°C° 0.6 mm 1 mps 675 mmHg 79%
19:00 +25°C° 0.6 mm 1 mps 675 mmHg 85%
20:00 +24°C° 0.6 mm 1 mps 675 mmHg 90%
21:00 +23°C° 0.3 mm 1 mps 676 mmHg 91%
22:00 +23°C° 0.3 mm 1 mps 676 mmHg 91%
23:00 +22°C° 0.3 mm 1 mps 676 mmHg 92%

Tomorrow, 15 July, Wednesday

Time Temperature Precipitation Wind Pressure Humidity
00:00 +22°C° 0.8 mm 1 mps 676 mmHg 93%
01:00 +22°C° 0.8 mm 1 mps 675 mmHg 94%
02:00 +19°C° 0.8 mm 0 mps 675 mmHg 94%
03:00 +19°C° 1 mm 0 mps 675 mmHg 95%
04:00 +19°C° 1 mm 0 mps 675 mmHg 95%
05:00 +19°C° 1 mm 0 mps 675 mmHg 95%
06:00 +20°C° 0.1 mm 0 mps 675 mmHg 93%
07:00 +21°C° 0.1 mm 0 mps 676 mmHg 91%
08:00 +23°C° 0.1 mm 0 mps 677 mmHg 89%
09:00 +24°C° 0.8 mm 0 mps 677 mmHg 86%
10:00 +25°C° 0.8 mm 0 mps 677 mmHg 82%
11:00 +28°C° 0.8 mm 1 mps 677 mmHg 78%
12:00 +27°C° 1.1 mm 0 mps 677 mmHg 77%
13:00 +27°C° 1.1 mm 0 mps 676 mmHg 76%
14:00 +27°C° 1.1 mm 0 mps 676 mmHg 75%
15:00 +27°C° 1.2 mm 0 mps 676 mmHg 78%
16:00 +26°C° 1.2 mm 0 mps 675 mmHg 81%
17:00 +26°C° 1.2 mm 0 mps 675 mmHg 84%
18:00 +24°C° 0.3 mm 0 mps 675 mmHg 85%
19:00 +25°C° 0.3 mm 1 mps 675 mmHg 87%
20:00 +23°C° 0.3 mm 1 mps 675 mmHg 88%
21:00 +23°C° 0.3 mm 1 mps 675 mmHg 88%
22:00 +23°C° 0.3 mm 1 mps 675 mmHg 88%
23:00 +22°C° 0.3 mm 1 mps 676 mmHg 88%

Day after tomorrow, 16 July, Thursday

Time Temperature Precipitation Wind Pressure Humidity
00:00 +22°C° 0.2 mm 1 mps 675 mmHg 89%
01:00 +22°C° 0.2 mm 1 mps 675 mmHg 89%
02:00 +21°C° 0.2 mm 1 mps 675 mmHg 89%
03:00 +21°C° 0.6 mm 1 mps 675 mmHg 90%
04:00 +19°C° 0.6 mm 0 mps 675 mmHg 91%
05:00 +19°C° 0.6 mm 0 mps 675 mmHg 92%
06:00 +20°C° 0.3 mm 0 mps 676 mmHg 90%
07:00 +21°C° 0.3 mm 0 mps 677 mmHg 89%
08:00 +23°C° 0.3 mm 0 mps 678 mmHg 87%
09:00 +27°C° 0.7 mm 1 mps 678 mmHg 81%
10:00 +28°C° 0.7 mm 1 mps 678 mmHg 74%
11:00 +30°C° 0.7 mm 1 mps 678 mmHg 68%
12:00 +30°C° 1.1 mm 1 mps 677 mmHg 67%
13:00 +30°C° 1.1 mm 1 mps 677 mmHg 67%
14:00 +30°C° 1.1 mm 1 mps 677 mmHg 66%
15:00 +30°C° 0.3 mm 1 mps 676 mmHg 70%
16:00 +29°C° 0.3 mm 1 mps 676 mmHg 74%
17:00 +28°C° 0.3 mm 1 mps 675 mmHg 78%
18:00 +27°C° 1.1 mm 1 mps 675 mmHg 83%
19:00 +25°C° 1.1 mm 1 mps 676 mmHg 87%
20:00 +23°C° 1.1 mm 1 mps 676 mmHg 92%
21:00 +23°C° 0.8 mm 1 mps 676 mmHg 92%
22:00 +23°C° 0.8 mm 1 mps 677 mmHg 92%
23:00 +22°C° 0.8 mm 1 mps 677 mmHg 92%

17 July, Friday

Time Temperature Precipitation Wind Pressure Humidity
00:00 +22°C° 0.7 mm 1 mps 677 mmHg 93%
01:00 +22°C° 0.7 mm 1 mps 676 mmHg 93%
02:00 +21°C° 0.7 mm 1 mps 676 mmHg 93%
03:00 +21°C° 1 mm 1 mps 676 mmHg 93%
04:00 +19°C° 1 mm 0 mps 676 mmHg 93%
05:00 +19°C° 1 mm 0 mps 676 mmHg 94%
06:00 +20°C° 0.1 mm 0 mps 677 mmHg 91%
07:00 +21°C° 0.1 mm 0 mps 677 mmHg 88%
08:00 +23°C° 0.1 mm 0 mps 678 mmHg 85%
09:00 +24°C° 0.5 mm 0 mps 678 mmHg 82%
10:00 +27°C° 0.5 mm 1 mps 678 mmHg 78%
11:00 +29°C° 0.5 mm 1 mps 678 mmHg 74%
12:00 +29°C° 0.9 mm 1 mps 677 mmHg 72%
13:00 +30°C° 0.9 mm 1 mps 677 mmHg 69%
14:00 +30°C° 0.9 mm 1 mps 677 mmHg 66%
15:00 +29°C° 0.2 mm 1 mps 676 mmHg 69%
16:00 +29°C° 0.2 mm 1 mps 676 mmHg 72%
17:00 +26°C° 0.2 mm 0 mps 676 mmHg 75%
18:00 +27°C° 0.3 mm 1 mps 676 mmHg 79%
19:00 +25°C° 0.3 mm 1 mps 676 mmHg 83%
20:00 +23°C° 0.3 mm 1 mps 676 mmHg 86%
21:00 +23°C° 0.3 mm 1 mps 676 mmHg 87%
22:00 +22°C° 0.3 mm 1 mps 676 mmHg 87%
23:00 +22°C° 0.3 mm 1 mps 676 mmHg 88%

18 July, Saturday

Time Temperature Precipitation Wind Pressure Humidity
00:00 +22°C° 0.2 mm 1 mps 676 mmHg 88%
01:00 +21°C° 0.2 mm 1 mps 675 mmHg 88%
02:00 +21°C° 0.2 mm 1 mps 675 mmHg 88%
03:00 +21°C° 0.2 mm 1 mps 675 mmHg 89%
04:00 +21°C° 0.2 mm 1 mps 675 mmHg 89%
05:00 +18°C° 0.2 mm 0 mps 675 mmHg 89%
06:00 +22°C° 0.1 mm 1 mps 676 mmHg 86%
07:00 +24°C° 0.1 mm 1 mps 676 mmHg 84%
08:00 +25°C° 0.1 mm 1 mps 677 mmHg 81%
09:00 +27°C° 0.1 mm 1 mps 677 mmHg 73%
10:00 +29°C° 0.1 mm 1 mps 677 mmHg 66%
11:00 +31°C° 0.1 mm 1 mps 677 mmHg 58%
12:00 +31°C° 0.7 mm 1 mps 677 mmHg 59%
13:00 +31°C° 0.7 mm 1 mps 676 mmHg 59%
14:00 +31°C° 0.7 mm 1 mps 676 mmHg 60%
15:00 +28°C° 0.9 mm 0 mps 675 mmHg 66%
16:00 +27°C° 0.9 mm 0 mps 675 mmHg 72%
17:00 +26°C° 0.9 mm 0 mps 675 mmHg 78%
18:00 +26°C° 0.4 mm 1 mps 675 mmHg 80%
19:00 +24°C° 0.4 mm 1 mps 675 mmHg 82%
20:00 +22°C° 0.4 mm 1 mps 675 mmHg 84%
21:00 +22°C° 0.4 mm 1 mps 675 mmHg 83%
22:00 +22°C° 0.4 mm 1 mps 675 mmHg 83%
23:00 +21°C° 0.4 mm 1 mps 676 mmHg 83%

19 July, Sunday

Time Temperature Precipitation Wind Pressure Humidity
00:00 +21°C° 0.2 mm 1 mps 675 mmHg 84%
01:00 +21°C° 0.2 mm 1 mps 675 mmHg 85%
02:00 +20°C° 0.2 mm 1 mps 674 mmHg 86%
03:00 +20°C° 0.3 mm 1 mps 674 mmHg 87%
04:00 +20°C° 0.3 mm 1 mps 674 mmHg 87%
05:00 +18°C° 0.3 mm 0 mps 674 mmHg 87%
06:00 +20°C° 0.2 mm 0 mps 675 mmHg 85%
07:00 +21°C° 0.2 mm 0 mps 676 mmHg 83%
08:00 +23°C° 0.2 mm 0 mps 677 mmHg 81%
09:00 +26°C° 1.1 mm 1 mps 677 mmHg 78%
10:00 +27°C° 1.1 mm 1 mps 677 mmHg 76%
11:00 +28°C° 1.1 mm 1 mps 677 mmHg 74%
12:00 +29°C° 1 mm 1 mps 677 mmHg 71%
13:00 +27°C° 1 mm 0 mps 676 mmHg 69%
14:00 +27°C° 1 mm 0 mps 676 mmHg 67%
15:00 +27°C° 0.2 mm 0 mps 675 mmHg 70%
16:00 +26°C° 0.2 mm 0 mps 675 mmHg 73%
17:00 +26°C° 0.2 mm 0 mps 675 mmHg 76%
18:00 +26°C° 0.1 mm 1 mps 675 mmHg 78%
19:00 +24°C° 0.1 mm 1 mps 675 mmHg 80%
20:00 +23°C° 0.1 mm 1 mps 674 mmHg 81%
21:00 +22°C° 0 mm 1 mps 675 mmHg 80%
22:00 +22°C° 0 mm 1 mps 675 mmHg 78%
23:00 +22°C° 0 mm 1 mps 675 mmHg 76%
Show more